Regional Weather Roundup
Issued by NWS

Home | Current Version | Previous Version | Graphics & Text | Print | Product List | Glossary On
Versions: 1 2 3 4 5 6 7 8 9 10 11 12 13 14 15 16 17 18 19 20 21 22 23 24 25 26 27
000
ASUS45 KSLC 250810
RWRUT

UTAH REGIONAL WEATHER ROUNDUP
NATIONAL WEATHER SERVICE SALT LAKE CITY UT
200 AM MDT TUE JUL 25 2017

UTZ001>011-023>025-250900-

NORTHERN UTAH

CITY           SKY/WX    TMP DP  RH WIND       PRES   REMARKS
BRIGHAM CITY   CLOUDY    79  47  31 S17G23    30.06R
HILL AFB       CLOUDY    72  57  60 S16       30.12S
LOGAN          CLOUDY    81  51  35 S20G32    30.04R
OGDEN          CLOUDY    75  57  53 S21G26    30.08R
SALT LAKE CITY LGT RAIN  72  64  76 S9        30.09R
TOOELE VALLEY  DRIZZLE   72  59  64 SE12      30.08R
WENDOVER       CLOUDY    79  49  34 NW13      30.04F
HEBER CITY     CLOUDY    63  57  82 CALM      30.17S
WEST JORDAN    CLOUDY    67  67  99 W8        30.12F

$$

UTZ011>015-024>027-250900-

CENTRAL/NORTHEAST UTAH

CITY           SKY/WX    TMP DP  RH WIND       PRES   REMARKS
PROVO AIRPORT  CLOUDY    68  63  84 VRB7      30.10F
MOAB/CANYONLAN CLOUDY    67  65  93 E8        30.12S
DELTA          CLOUDY    70  55  60 NE3       30.12S
PRICE          CLOUDY    63  62  97 E3        30.23F
ROOSEVELT      CLOUDY    73  52  46 S10       30.15R
VERNAL         CLOUDY    74  53  48 S14       30.17R

$$

UTZ013>016-019>022-027-250900-

SOUTHERN UTAH

CITY           SKY/WX    TMP DP  RH WIND       PRES   REMARKS
BRYCE CANYON   CLOUDY    58  57  97 CALM      30.30S
CEDAR CITY     RAIN      62  61  96 S7        30.20R FOG
MILFORD        CLOUDY    69  58  67 E5        30.13R
ST GEORGE      RAIN      70  67  90 CALM      30.05F FOG
HANKSVILLE     CLOUDY    68  61  77 NE14G23   30.11R
BLANDING       CLOUDY    68  56  66 NE5       30.26F

$$

REGIONAL REPORTS     COLORADO/ARIZONA

CITY           SKY/WX    TMP DP  RH WIND       PRES   REMARKS
CRAIG, CO      CLOUDY    72  48  42 SW16G26   30.19R
GRAND JUNCTION LGT RAIN  68  63  84 NE7       30.17S
RIFLE, CO      LGT RAIN  65  60  84 W5        30.22S
MONTROSE, CO   LGT RAIN  65  58  78 E5        30.24S
CORTEZ, CO     CLOUDY    64  62  93 CALM      30.21R
COLORADO CITY  LGT RAIN  68  64  88 NW8       30.17R
PAGE, AZ       CLOUDY    77  60  55 N6        30.06S
GRAND CANYON   CLOUDY    61  61 100 CALM      30.25F
KINGMAN, AZ    PTCLDY    73  67  81 CALM      30.04R
FLAGSTAFF, AZ  CLOUDY    59  59 100 SW8       30.29S

$$

REGIONAL REPORTS    NEVADA/IDAHO/WYOMING

CITY           SKY/WX    TMP DP  RH WIND       PRES   REMARKS
LAS VEGAS, NV  CLOUDY    85  65  51 S7        29.90S
ELY, NY        CLOUDY    58  54  86 S8        30.19F
ELKO, NV       CLOUDY    70  47  43 CALM      30.11R
POCATELLO, ID  CLOUDY    69  49  48 SW9       30.03R
BURLEY, ID     CLOUDY    73  53  49 CALM      29.98S
FORT BRIDGER,    N/A     70  47  44 W26G37    30.23R
EVANSTON, WY   CLOUDY    62  53  72 SW28G40   30.19F
ROCK SPRINGS,  CLOUDY    67  41  38 S5        30.17S
KEMMERER, WY     N/A    N/A N/A N/A NW13      30.21S

$$




USA.gov is the U.S. government's official web portal to all federal, state and local government web resources and services.